Regional Weather Roundup
Issued by NWS

Home | Current Version | Previous Version | Graphics & Text | Print | Product List | Glossary On
Versions: 1 2 3 4 5 6 7 8 9 10 11 12 13 14 15 16 17 18 19 20 21 22 23 24 25 26 27 28 29 30 31 32 33 34 35 36 37 38 39 40 41 42 43 44 45 46 47 48 49 50
000
ASUS45 KSLC 021810
RWRUT

UTAH REGIONAL WEATHER ROUNDUP
NATIONAL WEATHER SERVICE SALT LAKE CITY UT
1200 PM MDT SAT MAY 02 2015

UTZ001>011-023>025-021900-

NORTHERN UTAH

CITY           SKY/WX    TMP DP  RH WIND       PRES   REMARKS
BRIGHAM CITY   PTSUNNY   68  39  34 CALM      29.93F
HILL AFB       MOSUNNY   73  41  32 VRB6      29.95F
LOGAN          PTSUNNY   61  43  51 S8        29.95S
OGDEN          PTSUNNY   73  37  27 VRB5      29.93F
PROVO AIRPORT  MOSUNNY   75  37  25 E9        29.97F
SALT LAKE CITY PTSUNNY   76  34  21 S13       29.92S
VERNAL         MOSUNNY   68  38  33 SE5       30.00F
WENDOVER       MOSUNNY   73  32  21 CALM      29.93F
HEBER CITY     MOSUNNY   73  30  20 SW16G23   30.00S HAZE
WEST JORDAN    SUNNY     75  43  31 SE15G22   29.95F

$$

UTZ012>022-026-027-021900-

SOUTHERN/CENTRAL UTAH

CITY           SKY/WX    TMP DP  RH WIND       PRES   REMARKS
BLANDING       MOSUNNY   71  30  21 SE7       30.15F
BRYCE CANYON   MOSUNNY   68  19  15 SW22G31   30.17F
CEDAR CITY     PTSUNNY   74  22  14 S16G25    30.04S
DELTA          SUNNY     76  24  14 SW15G21   29.99F
HANKSVILLE     MOSUNNY   77  27  15 CALM      29.99F
MILFORD        MOSUNNY   76  24  14 S14G23    30.00F
MOAB/CYNLANDS  SUNNY     77  35  21 W5        29.97F
PRICE          MOSUNNY   72  29  20 SW10      30.04F
ST GEORGE      PTCLDY    79  32  18 CALM      29.94F
KANAB          SUNNY     77  27  15 S5        30.07S

$$

REGIONAL REPORTS     COLORADO/ARIZONA

CITY           SKY/WX    TMP DP  RH WIND       PRES   REMARKS
CRAIG, CO      SUNNY     68  38  33 VRB3      30.05F
GRAND JUNCTION MOSUNNY   73  37  27 CALM      29.99F
RIFLE          SUNNY     71  34  25 NW6       30.01F
MONTROSE       MOSUNNY   73  32  22 NE5       30.06S
CORTEZ         SUNNY     72  29  20 S3        30.09F
PAGE, AZ       NOT AVBL
GRAND CANYON   MOSUNNY   71  15  11 MISG      30.14F
KINGMAN        MOSUNNY   83  29  14 SW12      29.97R
FLAGSTAFF      CLOUDY    66  20  17 VRB5      30.17S

$$

REGIONAL REPORTS    NEVADA/IDAHO/WYOMING

CITY           SKY/WX    TMP DP  RH WIND       PRES   REMARKS
LAS VEGAS, NV  MOSUNNY   87  26  11 S9        29.83F
ELY            SUNNY     70  21  15 S10G17    30.04F
ELKO           MOSUNNY   72  28  19 S7        29.96F
POCATELLO, ID  MOSUNNY   73  35  25 NW9       29.91S
BURLEY         SUNNY     75  34  22 W10       29.87F
EVANSTON, WY   MOSUNNY   68  31  25 SW20G29   30.06F
ROCK SPRINGS   SUNNY     67  30  25 W17       30.05S
KEMMERER       LGT RAIN  55  30  38 SW8G45    30.08S

$$


USA.gov is the U.S. government's official web portal to all federal, state and local government web resources and services.